Location: Unspecified
(42.1900°N, 71.3291°W)
Time: 20:20:23
(UTC-04:00)

Resurs 1-4 Rocket - Visible Passes

Search period start: 25 April 2017 00:00
Search period end: 05 May 2017 00:00
Orbit: 799 x 815 km, 98.5° (Epoch: 24 April)

Date Brightness Start Highest point End Pass type
(mag) Time Alt. Az. Time Alt. Az. Time Alt. Az.
25 Apr 4.4 01:49:02 10° ENE 01:51:33 13° E 01:52:12 13° E visible
25 Apr 2.0 03:26:40 10° N 03:31:56 76° WNW 03:33:17 51° SW visible
25 Apr 4.1 05:09:41 10° NW 05:10:52 11° WNW 05:12:03 10° WNW visible
26 Apr 2.3 03:02:08 10° NNE 03:07:23 66° ESE 03:08:31 51° SSE visible
26 Apr 3.8 04:43:17 10° NNW 04:46:40 18° WNW 04:49:36 11° W visible
27 Apr 3.0 02:37:48 10° NNE 02:42:44 39° E 02:43:44 36° SE visible
27 Apr 3.2 04:18:00 10° N 04:22:23 28° WNW 04:24:50 19° WSW visible
28 Apr 3.8 02:13:48 10° NE 02:18:00 24° E 02:18:58 22° ESE visible
28 Apr 2.6 03:53:01 10° N 03:58:01 44° WNW 04:00:03 30° WSW visible
29 Apr 4.4 01:50:28 10° ENE 01:53:10 14° E 01:54:11 13° ESE visible
29 Apr 2.0 03:28:16 10° N 03:33:33 73° WNW 03:35:17 43° SSW visible
29 Apr 4.2 05:11:40 10° NW 05:12:27 10° NW 05:13:12 10° WNW visible
30 Apr 2.2 03:03:43 10° NNE 03:08:59 69° ESE 03:10:30 46° SSE visible
30 Apr 3.8 04:44:58 10° NNW 04:48:15 17° WNW 04:51:32 10° W visible
01 May 3.0 02:39:22 10° NNE 02:44:21 41° E 02:45:44 34° SE visible
01 May 3.3 04:19:38 10° N 04:23:58 27° WNW 04:26:49 17° WSW visible
02 May 3.7 02:15:20 10° NE 02:19:37 25° E 02:20:57 22° ESE visible
02 May 2.6 03:54:39 10° N 03:59:36 43° WNW 04:02:02 26° WSW visible
03 May 4.3 01:51:54 10° ENE 01:54:48 15° E 01:56:10 13° ESE visible
03 May 2.1 03:29:53 10° N 03:35:08 70° WNW 03:37:16 37° SSW visible
04 May 2.2 03:05:18 10° NNE 03:10:36 71° ESE 03:12:28 40° S visible
04 May 3.9 04:46:39 10° NNW 04:49:50 16° WNW 04:53:00 10° W visible
